Zurück zum Katalog

SL-16 DEB

LostLEO
NORAD 39844·DEBRIS·🇷🇺 Russia

Gestartet Dec 25, 1992 von Baikonur Cosmodrome

Loading…

Nächste Überflüge (nächste 24 Stunden)

TLE

VeraltetSource: Space-Track

Epoche: Nov 11, 2022, 21:17 UTC

1 39844U 92093KW  22315.88691631  .00002004  00000-0  73415-3 0  9995
2 39844  70.6528 174.0231 0045076 213.1175 146.7132 14.33567143986798

Verfolge SL-16 DEB in Echtzeit mit AllMySat

Download on the App Store